Location: NCO
(38.4404°N, 77.1340°W)
Time: 04:35:23
(UTC-05:00)

N. Korean satellite - Visible Passes

Search period start: 19 January 2018 00:00
Search period end: 29 January 2018 00:00
Orbit: 459 x 515 km, 97.2° (Epoch: 18 January)

Date Brightness Start Highest point End Pass type
(mag) Time Alt. Az. Time Alt. Az. Time Alt. Az.
19 Jan 6.8 17:47:41 10° SSE 17:51:11 48° ENE 17:54:38 10° N visible
20 Jan 6.6 06:49:32 10° NNE 06:52:59 82° ESE 06:56:26 10° S visible
20 Jan 9.6 18:58:33 10° SW 19:01:05 18° W 19:03:36 10° NW visible
21 Jan 8.3 06:26:05 10° NNE 06:29:17 36° E 06:32:29 10° SSE visible
21 Jan 8.3 18:33:59 10° SSW 18:37:19 36° W 18:40:38 10° NNW visible
22 Jan 9.7 06:03:08 10° NE 06:05:31 17° E 06:07:55 10° SE visible
22 Jan 6.7 18:10:03 10° S 18:13:38 79° W 18:17:12 10° NNW visible
23 Jan 6.8 17:46:34 10° SSE 17:50:01 46° ENE 17:53:25 10° N visible
24 Jan 6.6 06:48:19 10° NNE 06:51:47 80° ESE 06:55:15 10° S visible
24 Jan 9.6 18:57:23 10° SW 18:59:54 18° W 19:02:24 10° NW visible
25 Jan 8.4 06:24:53 10° NNE 06:28:05 35° E 06:31:18 10° SSE visible
25 Jan 8.2 18:32:49 10° SSW 18:36:08 36° W 18:39:25 10° NNW visible
26 Jan 9.8 06:01:56 10° NE 06:04:18 17° E 06:06:41 10° SE visible
26 Jan 6.6 18:08:53 10° S 18:12:26 82° WSW 18:15:57 10° NNW visible
28 Jan 9.6 18:56:09 10° SW 18:58:40 18° W 19:01:11 10° NW visible
